SBONWEB Weather Reports


Display with metric or nautical units.
time (UTC)temp
F
wind
direction
speed
MPH
gust
MPH
rain 1hr
in
rain 24hr
in
rain mn
in
humidity
%
barometer
mb
20260906114717 84 52 3.0 7.0 0.00 0.00 0.00 57 1023.6
20260906113604 83 96 4.0 7.0 0.00 0.00 0.00 55 1023.7
20260906112704 83 119 3.0 8.0 0.00 0.00 0.00 56 1023.6
20260906111803 83 127 4.0 8.0 0.00 0.00 0.00 55 1023.6
20260906111117 84 102 3.0 8.0 0.00 0.00 0.00 54 1023.5
20260906110003 83 95 2.0 6.0 0.00 0.00 0.00 55 1023.8
20260906105403 82 121 3.0 5.0 0.00 0.00 0.00 56 1023.7
20260906104503 82 107 4.0 8.0 0.00 0.00 0.00 55 1023.8
20260906103603 82 90 4.0 9.0 0.00 0.00 0.00 55 1023.9
20260906102704 82 67 2.0 7.0 0.00 0.00 0.00 55 1023.9
20260906101804 82 172 2.0 5.0 0.00 0.00 0.00 56 1024.0
20260906100903 82 217 1.0 5.0 0.00 0.00 0.00 58 1024.0
20260906100003 82 180 1.0 5.0 0.00 0.00 0.00 57 1024.2
20260906095403 82 170 1.0 4.0 0.00 0.00 0.00 58 1024.3
20260906094503 82 300 2.0 4.0 0.00 0.00 0.00 55 1024.3
20260906093818 82 346 2.0 4.0 0.00 0.00 0.00 55 1024.3
20260906092703 82 31 2.0 4.0 0.00 0.00 0.00 54 1024.4
20260906091804 82 64 2.0 8.0 0.00 0.00 0.00 54 1024.5
20260906090903 82 32 2.0 7.0 0.00 0.00 0.00 56 1024.5
20260906090003 82 21 2.0 5.0 0.00 0.00 0.00 55 1024.4
20260906085619 81 19 2.0 5.0 0.00 0.00 0.00 55 1024.3
20260906084503 81 230 2.0 7.0 0.00 0.00 0.00 55 1024.3
20260906083603 81 245 1.0 4.0 0.00 0.00 0.00 53 1024.4
20260906082703 80 321 3.0 4.0 0.00 0.00 0.00 55 1024.3
20260906081804 79 360 4.0 8.0 0.00 0.00 0.00 54 1024.4
20260906080903 79 9 4.0 8.0 0.00 0.00 0.00 52 1024.2
20260906080217 79 325 4.0 8.0 0.00 0.00 0.00 53 1024.2
20260906075403 78 350 4.0 7.0 0.00 0.00 0.00 54 1024.1
20260906074503 78 7 3.0 8.0 0.00 0.00 0.00 54 1024.0
20260906073604 78 9 2.0 4.0 0.00 0.00 0.00 55 1023.9
20260906072703 77 347 2.0 4.0 0.00 0.00 0.00 55 1023.9
20260906071803 76 289 4.0 7.0 0.00 0.00 0.00 56 1023.9
20260906070904 76 325 4.0 8.0 0.00 0.00 0.00 55 1023.7
20260906070003 75 345 5.0 10.0 0.00 0.00 0.00 55 1023.8
20260906065403 75 330 5.0 10.0 0.00 0.00 0.00 56 1023.7
20260906064503 74 345 3.0 8.0 0.00 0.00 0.00 56 1023.6
20260906063604 74 349 4.0 5.0 0.00 0.00 0.00 55 1023.6
20260906062703 74 287 3.0 8.0 0.00 0.00 0.00 56 1023.5
20260906061803 74 297 3.0 7.0 0.00 0.00 0.00 56 1023.3
20260906060904 74 348 3.0 7.0 0.00 0.00 0.00 56 1023.2
20260906060003 74 10 3.0 5.0 0.00 0.00 0.00 54 1023.1
20260906055618 74 12 3.0 5.0 0.00 0.00 0.00 54 1023.1
20260906054503 74 354 3.0 7.0 0.00 0.00 0.00 55 1022.8
20260906053603 73 359 2.0 6.0 0.00 0.00 0.00 56 1022.7
20260906052704 72 311 2.0 4.0 0.00 0.00 0.00 56 1022.5
20260906052017 72 305 3.0 5.0 0.00 0.00 0.00 56 1022.5
20260906050903 73 334 2.0 3.0 0.00 0.00 0.00 55 1022.2
20260906050218 73 335 2.0 3.0 0.00 0.00 0.00 55 1022.2
20260906045403 73 335 3.0 5.0 0.00 0.00 0.00 54 1022.0
20260906044504 73 337 3.0 7.0 0.00 0.00 0.00 54 1022.0
20260906043603 73 340 4.0 7.0 0.00 0.00 0.00 54 1021.9
20260906042704 73 13 4.0 7.0 0.00 0.00 0.00 54 1021.9
20260906041803 73 1 4.0 8.0 0.00 0.00 0.00 53 1021.9
20260906040903 74 11 4.0 7.0 0.00 0.00 0.00 52 1021.8
20260906040003 74 358 3.0 7.0 0.00 0.00 0.00 52 1021.8
20260906035403 74 349 3.0 5.0 0.00 0.00 0.00 52 1021.7
20260906034504 74 322 3.0 5.0 0.00 0.00 0.00 52 1021.7
20260906033603 74 336 3.0 7.0 0.00 0.00 0.00 52 1021.6
20260906032703 74 357 3.0 5.0 0.00 0.00 0.00 52 1021.6
20260906031803 74 8 2.0 6.0 0.00 0.00 0.00 52 1021.6
20260906030903 74 332 3.0 6.0 0.00 0.00 0.00 52 1021.6
20260906030004 74 330 3.0 6.0 0.00 0.00 0.00 53 1021.5
20260906025403 74 348 3.0 6.0 0.00 0.00 0.00 53 1021.4
20260906024718 73 342 2.0 6.0 0.00 0.00 0.00 53 1021.5
20260906023604 73 341 2.0 5.0 0.00 0.00 0.00 54 1021.4
20260906022917 73 341 1.0 5.0 0.00 0.00 0.00 57 1021.3
20260906021803 73 296 1.0 4.0 0.00 0.00 0.00 56 1021.3
20260906020903 73 252 1.0 2.0 0.00 0.00 0.00 55 1021.2
20260906015618 74 0 0.0 0.0 0.00 0.00 0.00 54 1021.0
20260906014504 75 283 2.0 3.0 0.00 0.00 0.00 52 1020.9
20260906013603 75 346 3.0 5.0 0.00 0.00 0.00 51 1020.9
20260906012703 75 10 3.0 5.0 0.00 0.00 0.00 49 1020.9
20260906011803 75 13 3.0 4.0 0.00 0.00 0.00 49 1020.8
20260906010903 75 355 3.0 5.0 0.00 0.00 0.00 49 1020.8
20260906010003 75 308 3.0 6.0 0.00 0.00 0.00 49 1020.8
20260906005618 76 289 3.0 5.0 0.00 0.00 0.00 49 1020.7
20260906004503 76 291 2.0 4.0 0.00 0.00 0.00 48 1020.7
20260906003603 77 32 3.0 8.0 0.00 0.00 0.00 47 1020.8
20260906002703 77 41 3.0 11.0 0.00 0.00 0.00 47 1020.8
20260906001803 77 58 3.0 7.0 0.00 0.00 0.00 46 1020.8
20260906000903 78 14 4.0 7.0 0.00 0.00 0.00 45 1020.6
20260906000003 78 340 4.0 7.0 0.00 0.00 0.00 45 1020.5
20260905235617 78 322 3.0 8.0 0.00 0.00 0.00 45 1020.4
20260905234503 78 273 3.0 7.0 0.00 0.00 0.00 44 1020.4
20260905233603 79 261 4.0 10.0 0.00 0.00 0.00 43 1020.5
20260905232918 79 280 5.0 10.0 0.00 0.00 0.00 43 1020.5
20260905232017 79 301 6.0 10.0 0.00 0.00 0.00 43 1020.4
20260905230904 79 289 5.0 11.0 0.00 0.00 0.00 42 1020.4
20260905230003 79 277 6.0 12.0 0.00 0.00 0.00 42 1020.4
20260905225617 79 291 6.0 12.0 0.00 0.00 0.00 43 1020.3
20260905224503 79 291 5.0 13.0 0.00 0.00 0.00 43 1020.3
20260905223603 78 280 5.0 10.0 0.00 0.00 0.00 44 1020.3
20260905222704 78 302 5.0 9.0 0.00 0.00 0.00 45 1020.3
20260905221803 78 285 3.0 8.0 0.00 0.00 0.00 46 1020.2
20260905220903 78 299 3.0 6.0 0.00 0.00 0.00 45 1020.2
20260905220003 79 1 4.0 5.0 0.00 0.00 0.00 45 1020.2
20260905215403 79 5 4.0 5.0 0.00 0.00 0.00 44 1020.1
20260905214503 79 4 4.0 5.0 0.00 0.00 0.00 45 1020.1
20260905213603 79 3 5.0 7.0 0.00 0.00 0.00 45 1020.1
20260905212703 79 8 4.0 7.0 0.00 0.00 0.00 46 1020.0
20260905211804 79 352 4.0 5.0 0.00 0.00 0.00 46 1020.0
20260905210903 80 354 5.0 8.0 0.00 0.00 0.00 46 1019.9
20260905210003 80 5 6.0 9.0 0.00 0.00 0.00 45 1019.8
20260905205403 80 346 6.0 9.0 0.00 0.00 0.00 45 1019.8
20260905204503 80 326 6.0 10.0 0.00 0.00 0.00 44 1019.7
20260905203604 80 339 7.0 12.0 0.00 0.00 0.00 45 1019.7
20260905202703 80 337 6.0 10.0 0.00 0.00 0.00 45 1019.6
20260905201803 80 317 5.0 9.0 0.00 0.00 0.00 48 1019.6
20260905200903 78 338 4.0 9.0 0.00 0.00 0.00 51 1019.5
20260905200003 77 358 2.0 7.0 0.00 0.00 0.00 58 1019.4
20260905195618 76 355 1.0 5.0 0.00 0.00 0.00 62 1019.3
20260905194503 76 233 0.0 2.0 0.00 0.00 0.00 67 1019.2
20260905193603 76 209 1.0 2.0 0.00 0.00 0.00 67 1019.0
20260905192703 76 210 1.0 2.0 0.00 0.00 0.00 69 1019.1
20260905191803 76 217 1.0 5.0 0.00 0.00 0.00 70 1018.9
20260905190903 76 270 1.0 3.0 0.00 0.00 0.00 68 1018.9
20260905190003 76 256 1.0 3.0 0.00 0.00 0.00 70 1018.7
20260905185403 76 239 1.0 3.0 0.00 0.00 0.00 71 1018.6
20260905184717 76 252 1.0 2.0 0.00 0.00 0.00 73 1018.6
20260905183604 76 257 1.0 3.0 0.00 0.00 0.00 74 1018.4
20260905182703 76 221 2.0 3.0 0.00 0.00 0.00 75 1018.3
20260905181803 77 212 1.0 3.0 0.00 0.00 0.00 75 1018.2
20260905180903 79 230 1.0 3.0 0.00 0.00 0.00 74 1018.2
20260905180003 79 250 1.0 2.0 0.00 0.00 0.00 72 1018.2
20260905175404 79 238 0.0 3.0 0.00 0.00 0.00 74 1018.2
20260905174503 80 209 1.0 1.0 0.00 0.00 0.00 74 1018.0
20260905173603 81 208 1.0 2.0 0.00 0.00 0.00 72 1017.8
20260905172917 82 210 0.0 2.0 0.00 0.00 0.00 72 1017.8
20260905171804 83 0 0.0 0.0 0.00 0.00 0.00 71 1017.6
20260905171118 84 0 0.0 0.0 0.00 0.00 0.00 67 1017.7
20260905170003 84 33 1.0 1.0 0.00 0.00 0.00 68 1017.9
20260905165403 84 33 0.0 2.0 0.00 0.00 0.00 67 1017.8
20260905164504 84 33 0.0 1.0 0.00 0.00 0.00 65 1017.8
20260905163603 85 41 0.0 2.0 0.00 0.00 0.00 60 1017.7
20260905162703 86 146 0.0 2.0 0.00 0.00 0.00 58 1017.6
20260905161803 86 176 2.0 5.0 0.00 0.00 0.00 59 1017.6
20260905161120 86 186 2.0 5.0 0.00 0.00 0.00 59 1017.6
20260905160003 86 194 1.0 5.0 0.00 0.00 0.00 58 1017.6
20260905155403 87 184 1.0 5.0 0.00 0.00 0.00 59 1017.7
20260905154718 87 185 1.0 5.0 0.00 0.00 0.00 59 1017.7
20260905153817 87 190 1.0 5.0 0.00 0.00 0.00 58 1017.6
20260905152703 88 193 1.0 3.0 0.00 0.00 0.00 56 1017.6
20260905151803 88 181 2.0 4.0 0.00 0.00 0.00 56 1017.7
20260905150904 88 186 2.0 6.0 0.00 0.00 0.00 54 1017.7
20260905150003 87 174 2.0 6.0 0.00 0.00 0.00 55 1017.7
20260905145618 87 176 2.0 6.0 0.00 0.00 0.00 55 1017.7
20260905144503 88 173 2.0 9.0 0.00 0.00 0.00 53 1017.8
20260905143604 88 162 2.0 4.0 0.00 0.00 0.00 55 1017.7
20260905142703 88 165 2.0 5.0 0.00 0.00 0.00 54 1017.7
20260905141803 88 161 2.0 5.0 0.00 0.00 0.00 53 1017.8
20260905140903 88 165 3.0 7.0 0.00 0.00 0.00 53 1017.8
20260905140004 88 149 3.0 6.0 0.00 0.00 0.00 54 1018.0
20260905135403 88 156 3.0 6.0 0.00 0.00 0.00 57 1017.9
20260905134503 88 166 3.0 6.0 0.00 0.00 0.00 52 1017.8
20260905133603 88 165 3.0 7.0 0.00 0.00 0.00 53 1018.0
20260905132704 88 141 3.0 8.0 0.00 0.00 0.00 55 1018.1
20260905132017 88 181 3.0 6.0 0.00 0.00 0.00 55 1018.1
20260905130903 87 201 3.0 7.0 0.00 0.00 0.00 54 1018.2
20260905130003 87 190 2.0 7.0 0.00 0.00 0.00 55 1018.2
20260905125403 87 174 3.0 5.0 0.00 0.00 0.00 56 1018.3
20260905124719 86 201 3.0 6.0 0.00 0.00 0.00 59 1018.4
20260905123603 86 202 3.0 6.0 0.00 0.00 0.00 55 1018.4
20260905122704 86 142 2.0 5.0 0.00 0.00 0.00 56 1018.5
20260905121803 86 155 2.0 5.0 0.00 0.00 0.00 57 1018.4
20260905120903 86 179 2.0 6.0 0.00 0.00 0.00 55 1018.5
20260905120218 85 175 2.0 6.0 0.00 0.00 0.00 56 1018.4
20260905115403 85 198 3.0 6.0 0.00 0.00 0.00 57 1018.6